Temp
10 10 11 12 12 11 11 10 10 11 11 9 10 11 12 11 10 12 12 12 12 12 12 11 10 11 11 11 12 11 11 10 10 9 8 8 8 8 8 8 8 8 7 7
10 10 12 11 10 10 10 9 9 10 10 10 10 10 11 11 11 12 12 12 12 12 11 11 10 11 12 12 11 11 11 10 10 9 8 8 8 8 8 8 8 7 7 7
9 11 11 10 10 9 10 9 10 10 10 9 9 10 10 12 11 11 12 13 13 13 12 11 11 11 11 11 11 10 10 10 9 9 9 8 8 8 8 8 7 7 7 6
8 10 9 9 9 9 9 10 9 9 9 9 9 8 9 10 11 11 12 12 13 13 13 12 11 12 12 12 10 10 10 10 9 9 9 8 8 8 7 7 7 6 6 6
8 8 9 9 10 9 9 9 9 9 9 8 8 7 8 9 10 12 12 12 13 13 13 12 12 12 11 11 10 10 10 10 10 9 9 8 8 7 7 7 6 6 6 5
9 9 7 8 8 8 8 8 8 8 8 5 8 7 9 10 11 12 12 12 13 13 12 13 13 12 12 11 11 11 10 10 9 9 9 8 8 7 7 6 6 5 5 5
9 9 9 8 7 8 8 7 6 4 3 4 8 7 9 11 11 11 11 11 13 13 12 13 13 12 11 11 11 10 10 10 9 9 8 8 7 7 7 6 5 5 5 4
5 6 9 9 9 9 8 8 7 3 3 7 8 7 9 10 11 11 12 11 12 12 12 12 13 12 11 11 11 10 10 10 9 8 8 7 7 7 6 6 5 4 4 4
6 7 7 8 8 8 7 6 7 8 7 5 8 9 10 10 10 11 11 12 12 12 12 12 12 11 11 11 10 10 10 9 8 8 7 7 7 6 6 5 5 4 4 4
4 4 6 6 7 7 7 7 6 5 3 3 7 7 9 10 11 11 11 11 11 12 12 12 12 12 11 10 10 10 9 8 8 7 7 7 7 6 5 5 4 4 3 3
3 3 4 5 5 6 7 6 5 6 6 5 5 7 9 10 11 11 11 11 11 12 12 12 12 11 10 10 10 9 9 8 8 7 7 7 6 5 5 4 4 3 3 2
2 1 2 3 4 5 6 6 7 5 6 5 6 7 9 10 10 10 10 11 11 12 12 11 11 11 10 10 10 9 9 8 7 7 7 6 5 5 4 3 3 3 2 2
-1 0 0 2 3 4 4 4 5 6 6 5 5 6 7 8 8 9 10 11 11 10 10 11 11 11 10 9 9 9 8 7 7 7 6 6 5 4 3 3 2 2 2 1
-3 -3 -1 -1 -1 -2 -2 -0 -0 -1 2 5 5 6 7 7 7 8 8 9 9 10 10 10 10 10 9 9 8 8 8 7 6 6 6 5 5 4 3 2 2 1 1 1
-3 -4 -4 -3 -3 -2 -2 -3 -3 -4 -3 -4 -0 2 5 7 7 8 8 8 8 8 9 10 9 9 9 8 8 8 7 7 6 6 5 5 4 3 3 2 1 1 0 -0
-4 -5 -4 -5 -4 -3 -4 -4 -2 1 -0 -3 -1 0 3 4 5 6 7 7 8 8 8 9 9 8 8 8 8 7 7 7 6 5 5 4 4 3 2 1 1 0 -1 -1
-5 -5 -5 -5 -4 -5 -4 -2 -0 -0 -0 -1 -2 -1 0 2 3 4 6 7 7 7 8 8 8 8 7 8 7 7 6 5 5 5 4 4 3 2 1 1 1 -0 -1 -1
-4 -4 -6 -6 -5 -5 -3 -2 -1 -0 -1 -2 -2 -2 -2 -1 1 3 5 6 6 7 7 7 7 7 7 7 7 6 6 6 5 5 4 3 2 1 1 1 -0 -0 -1 -1
-5 -6 -5 -5 -4 -4 -3 -1 -1 -2 -2 -2 -1 -3 -2 -2 -0 2 4 5 6 6 7 7 7 6 6 6 6 6 5 5 5 4 3 2 2 1 1 0 -0 -1 -1 -2
-5 -5 -6 -6 -6 -6 -2 -3 -3 -2 -3 -3 -3 -3 -2 -2 -3 -0 2 4 6 6 6 6 6 6 6 5 5 5 5 5 4 3 2 2 2 1 0 0 -1 -1 -2 -2
-7 -6 -7 -7 -6 -6 -4 -4 -4 -5 -5 -4 -5 -5 -3 -5 -3 -3 -2 2 5 5 6 5 6 5 5 5 5 5 4 4 3 3 2 2 1 0 -0 -1 -1 -1 -2 -3
-7 -7 -8 -7 -7 -6 -4 -5 -5 -6 -5 -5 -4 -5 -4 -4 -3 -3 -3 1 5 5 5 5 5 5 4 4 4 4 3 3 3 2 1 1 -0 -1 -1 -1 -1 -2 -2 -3
-8 -7 -7 -7 -6 -5 -4 -5 -4 -5 -5 -5 -5 -5 -4 -4 -3 -2 -3 -0 3 4 4 4 4 4 4 3 3 3 3 2 2 1 0 -1 -1 -1 -1 -1 -2 -2 -3 -3
-7 -8 -7 -7 -5 -5 -5 -5 -5 -5 -6 -5 -5 -5 -4 -4 -3 -3 -3 -3 -1 1 2 3 3 2 2 2 2 2 2 1 0 -0 -1 -1 -1 -1 -1 -2 -2 -2 -3 -3
-7 -7 -7 -8 -6 -6 -5 -5 -6 -6 -5 -4 -4 -5 -5 -5 -3 -3 -3 -4 -3 -2 -1 0 0 0 0 1 1 1 -0 -0 -1 -2 -1 -1 -1 -1 -2 -2 -3 -3 -4 -4
-5 -6 -8 -6 -6 -7 -6 -7 -5 -6 -6 -5 -4 -4 -4 -4 -5 -4 -3 -3 -4 -4 -2 -1 -2 -2 -1 -1 -1 -1 -1 -1 -2 -3 -2 -2 -2 -2 -3 -3 -3 -4 -4 -5
Height
3160 3158 3154 3156 3159 3159 3158 3156 3154 3155 3156 3151 3148 3144 3146 3149 3145 3145 3145 3144 3143 3142 3147 3144 3144 3143 3144 3145 3146 3147 3148 3148 3149 3149 3149 3149 3148 3147 3145 3144 3142 3140 3138 3135
3154 3149 3154 3155 3154 3153 3152 3151 3148 3149 3150 3146 3143 3134 3136 3137 3136 3136 3136 3134 3134 3135 3135 3136 3136 3136 3136 3138 3139 3140 3140 3141 3141 3142 3142 3142 3141 3140 3139 3138 3136 3134 3132 3129
3146 3148 3148 3148 3147 3146 3145 3143 3143 3143 3144 3139 3136 3121 3124 3125 3125 3127 3126 3125 3124 3122 3124 3126 3127 3127 3129 3129 3131 3133 3132 3133 3134 3135 3135 3135 3135 3134 3133 3131 3130 3128 3126 3122
3141 3144 3144 3141 3139 3142 3135 3140 3140 3140 3139 3133 3133 3107 3111 3116 3117 3116 3116 3117 3116 3116 3116 3116 3119 3120 3122 3124 3124 3123 3124 3125 3127 3128 3128 3128 3129 3128 3126 3124 3122 3120 3117 3114
3139 3138 3138 3135 3134 3138 3131 3136 3136 3134 3131 3128 3123 3122 3098 3104 3104 3108 3109 3109 3109 3108 3108 3109 3110 3113 3116 3116 3116 3116 3116 3117 3119 3120 3121 3122 3122 3121 3119 3117 3115 3112 3110 3106
3130 3133 3132 3131 3131 3131 3133 3131 3130 3126 3123 3116 3110 3116 3079 3093 3094 3098 3099 3100 3099 3099 3102 3102 3104 3105 3107 3108 3108 3109 3110 3111 3113 3114 3115 3115 3115 3113 3112 3110 3107 3105 3102 3099
3124 3122 3123 3125 3125 3125 3125 3124 3124 3120 3116 3100 3101 3106 3076 3084 3089 3091 3092 3093 3093 3092 3094 3095 3097 3098 3100 3100 3101 3102 3103 3105 3106 3108 3109 3108 3107 3106 3104 3103 3100 3098 3095 3091
3119 3110 3114 3115 3111 3113 3112 3114 3109 3111 3107 3092 3094 3081 3065 3077 3082 3083 3083 3085 3087 3087 3089 3090 3091 3091 3092 3093 3094 3094 3097 3099 3100 3101 3101 3100 3099 3098 3096 3094 3093 3090 3087 3084
3112 3100 3105 3105 3106 3108 3103 3101 3104 3101 3095 3091 3079 3070 3068 3070 3072 3075 3077 3079 3080 3082 3083 3084 3084 3084 3085 3086 3088 3090 3090 3091 3092 3093 3092 3092 3090 3089 3088 3086 3084 3081 3078 3075
3106 3094 3094 3097 3098 3095 3095 3098 3096 3094 3092 3089 3070 3069 3059 3061 3065 3068 3069 3071 3073 3075 3075 3076 3077 3077 3078 3080 3081 3083 3084 3085 3085 3084 3084 3083 3082 3081 3080 3078 3076 3073 3070 3066
3100 3095 3075 3086 3086 3089 3088 3084 3084 3082 3078 3071 3065 3054 3055 3058 3060 3061 3062 3065 3066 3067 3068 3069 3070 3071 3072 3073 3073 3075 3077 3078 3077 3077 3076 3075 3074 3074 3072 3070 3067 3064 3061 3058
3094 3085 3075 3073 3078 3078 3075 3073 3072 3068 3061 3059 3056 3034 3050 3053 3056 3058 3059 3059 3059 3060 3060 3061 3062 3063 3064 3065 3066 3068 3068 3068 3069 3068 3068 3067 3067 3067 3064 3062 3059 3057 3054 3051
3085 3081 3071 3061 3067 3069 3062 3064 3065 3057 3054 3046 3042 3026 3044 3045 3048 3051 3053 3052 3052 3053 3054 3055 3055 3055 3056 3058 3059 3059 3060 3059 3059 3059 3060 3059 3059 3058 3056 3054 3052 3049 3046 3043
3078 3072 3070 3064 3062 3061 3054 3049 3053 3053 3045 3037 3032 3025 3030 3035 3039 3043 3045 3047 3047 3046 3045 3046 3047 3048 3049 3050 3051 3051 3052 3051 3051 3051 3051 3051 3051 3050 3048 3046 3044 3041 3038 3035
3075 3065 3064 3057 3055 3055 3047 3044 3041 3040 3037 3036 3022 3025 3023 3027 3029 3029 3032 3033 3034 3035 3035 3035 3037 3039 3040 3041 3043 3043 3043 3043 3043 3042 3043 3043 3042 3041 3040 3038 3036 3033 3030 3027
3061 3052 3052 3043 3040 3037 3030 3031 3030 3027 3024 3019 3021 3010 3021 3015 3016 3016 3019 3021 3021 3021 3024 3026 3028 3030 3031 3032 3033 3034 3034 3034 3034 3034 3034 3034 3033 3032 3032 3030 3027 3025 3022 3019
3050 3043 3038 3032 3030 3028 3019 3018 3017 3012 3008 3007 3006 3004 3003 2998 2997 2998 3005 3007 3006 3009 3012 3013 3015 3018 3021 3023 3024 3023 3024 3024 3024 3025 3025 3025 3025 3024 3024 3022 3020 3017 3015 3011
3034 3033 3033 3026 3023 3017 3007 3010 3008 3004 3003 3000 2992 2993 2993 2989 2985 2986 2992 2995 2993 2996 3002 3006 3006 3006 3009 3012 3013 3013 3013 3014 3015 3016 3016 3017 3016 3016 3016 3014 3012 3010 3006 3003
3029 3027 3021 3016 3013 3008 3004 3000 2999 2995 2991 2990 2983 2985 2980 2975 2971 2972 2979 2977 2978 2981 2988 2990 2994 2996 2999 3001 3002 3003 3004 3005 3006 3007 3008 3008 3008 3008 3007 3006 3004 3000 2997 2995
3026 3022 3020 3015 3013 3007 2992 2997 2992 2986 2981 2980 2977 2969 2960 2963 2964 2952 2955 2960 2962 2966 2969 2976 2981 2983 2987 2990 2992 2993 2995 2996 2997 2998 2999 2999 2999 2999 2999 2997 2994 2993 2990 2987
3015 3014 3012 3009 3004 2996 2990 2988 2987 2986 2985 2974 2973 2969 2964 2967 2957 2948 2943 2941 2945 2951 2957 2963 2967 2972 2977 2980 2982 2984 2987 2988 2989 2989 2989 2990 2991 2991 2990 2989 2987 2986 2982 2979
3015 3013 3007 3002 2999 2990 2986 2981 2984 2983 2976 2972 2966 2962 2962 2956 2947 2943 2936 2930 2933 2940 2944 2951 2957 2962 2967 2970 2972 2976 2978 2979 2980 2981 2983 2984 2984 2982 2982 2982 2980 2978 2974 2970
3009 3004 3000 2998 2986 2982 2978 2977 2974 2973 2969 2965 2963 2961 2953 2948 2938 2936 2930 2922 2927 2932 2940 2943 2949 2953 2957 2962 2965 2968 2970 2972 2974 2975 2975 2975 2975 2975 2974 2974 2973 2971 2967 2963
2990 2992 2988 2985 2975 2973 2970 2968 2966 2965 2962 2957 2955 2951 2942 2932 2935 2933 2928 2922 2921 2935 2940 2940 2944 2948 2952 2956 2958 2960 2963 2964 2965 2966 2967 2967 2968 2968 2968 2967 2965 2962 2959 2956
2986 2984 2977 2973 2966 2966 2960 2957 2956 2952 2951 2947 2944 2940 2937 2937 2930 2929 2926 2924 2919 2927 2933 2937 2940 2943 2946 2949 2952 2954 2956 2958 2959 2959 2960 2961 2962 2961 2960 2959 2957 2954 2952 2947
2973 2972 2971 2963 2963 2959 2946 2950 2947 2943 2941 2938 2935 2932 2931 2928 2926 2925 2922 2920 2922 2921 2928 2936 2937 2939 2942 2944 2945 2947 2948 2949 2950 2951 2953 2953 2953 2952 2952 2950 2950 2948 2943 2940
Wind_Speed
23 27 32 29 25 25 26 23 23 22 17 27 29 31 30 22 28 30 30 31 32 33 27 28 27 32 33 30 28 28 29 30 30 29 29 30 30 29 27 26 27 27 29 30
27 33 25 24 24 25 26 27 31 31 28 30 31 40 38 33 36 35 31 31 32 32 34 33 34 34 32 31 31 32 32 32 30 30 30 30 29 28 26 27 27 27 28 30
32 26 21 26 27 29 31 32 31 30 25 31 33 47 44 44 41 36 35 32 33 36 36 34 36 35 32 32 33 32 34 33 31 30 29 29 27 26 27 28 27 27 29 31
26 28 31 23 25 26 37 30 26 27 30 30 20 31 37 35 39 34 26 25 25 24 24 32 35 33 29 27 30 32 33 31 29 26 26 25 25 26 27 27 28 29 30 32
24 19 22 32 37 29 35 28 27 28 32 36 36 17 26 18 25 25 25 26 27 20 23 24 24 21 21 24 27 28 30 30 24 23 23 23 24 25 26 27 29 30 31 32
36 33 25 28 26 26 32 30 29 32 31 16 38 23 59 42 40 32 15 21 28 30 25 22 18 20 20 23 28 29 28 24 22 21 21 23 24 25 26 28 29 30 31 31
31 33 35 37 32 29 31 30 9 7 6 13 21 23 51 28 22 29 33 26 19 20 27 20 20 21 17 22 24 26 25 21 22 22 22 23 23 25 27 28 29 30 31 31
32 32 26 29 38 42 40 39 24 8 7 15 22 21 43 42 34 27 20 21 22 18 20 24 29 28 23 21 24 26 21 21 24 25 25 25 25 26 26 28 29 30 30 31
22 33 31 26 25 31 42 40 46 41 26 8 21 34 41 40 34 33 32 25 30 29 27 30 23 25 19 22 21 19 22 24 26 26 27 26 26 25 26 29 30 31 31 31
34 38 28 21 30 36 41 35 23 26 7 11 19 24 32 23 23 27 30 31 32 31 32 28 26 23 22 19 17 20 23 24 26 28 27 27 26 25 27 30 31 31 31 31
28 26 51 41 35 36 35 45 36 30 32 13 16 23 42 34 23 21 22 27 29 30 28 29 31 27 24 23 20 18 22 25 27 28 27 27 25 25 28 30 31 31 30 32
32 25 35 38 32 34 40 44 45 37 31 22 36 49 50 40 33 28 30 27 27 29 29 29 32 31 28 27 25 26 25 26 26 26 27 26 26 26 28 30 31 31 30 32
26 24 25 34 40 35 24 29 40 48 49 41 30 48 49 46 42 32 29 26 25 28 30 29 33 37 33 28 27 28 23 24 25 26 27 27 26 27 29 30 31 30 30 32
35 21 20 22 16 20 34 35 31 26 28 41 48 63 67 58 49 44 43 43 44 41 39 37 38 36 33 28 30 29 26 25 25 27 28 27 27 27 29 30 30 29 31 31
30 33 36 43 51 49 47 45 52 50 49 29 51 49 59 62 59 52 50 48 50 43 39 36 34 32 32 34 33 30 25 25 26 27 28 27 27 28 29 29 29 29 30 31
46 48 38 38 48 43 43 36 45 48 52 53 41 48 45 56 54 55 55 48 38 36 39 37 39 39 39 39 34 31 31 28 27 28 28 28 28 28 28 29 28 28 29 31
45 46 42 38 46 35 31 34 31 36 37 34 34 31 40 36 36 43 45 43 42 40 38 39 42 43 41 38 33 32 29 26 27 28 28 28 28 28 28 28 27 27 30 32
35 39 36 33 36 16 32 22 25 39 30 21 22 34 49 43 43 38 42 45 49 44 40 40 43 35 33 35 33 30 31 28 28 28 28 28 27 27 28 26 26 29 30 33
15 15 20 10 19 27 40 26 13 16 29 33 38 34 21 30 47 51 33 44 48 48 43 42 40 39 34 32 33 32 31 29 28 26 26 26 27 28 26 25 27 28 31 33
24 26 23 29 11 10 47 28 31 31 27 17 19 31 43 47 43 39 39 48 49 47 37 40 40 39 37 32 34 34 31 28 25 23 25 26 27 25 25 25 26 28 32 34
30 18 15 25 23 18 31 20 18 13 25 38 34 44 49 43 42 32 24 36 51 49 47 31 32 35 38 36 33 31 27 23 21 25 26 26 25 25 24 25 26 29 31 32
25 25 31 22 13 14 17 32 34 37 41 42 33 38 42 33 39 29 26 12 33 40 29 27 31 33 32 31 29 25 21 20 23 25 25 25 24 23 24 25 26 29 30 32
25 30 33 32 38 37 40 42 41 33 31 31 26 36 43 33 28 27 30 8 4 12 18 24 27 27 25 24 20 17 17 19 22 23 22 22 22 23 25 25 25 28 29 31
42 33 30 35 49 49 50 41 34 34 32 32 31 26 33 36 30 34 29 11 7 11 16 19 21 20 18 16 15 15 12 14 18 19 21 22 22 24 25 24 25 27 28 30
48 44 48 45 44 39 37 36 38 37 31 28 26 21 25 31 30 35 23 18 5 12 15 15 13 13 12 12 13 13 12 12 16 19 22 22 23 23 23 23 24 27 28 30
41 40 39 43 33 33 43 38 34 35 32 26 26 25 26 30 34 34 30 16 10 14 16 13 14 14 13 15 15 15 15 14 17 18 20 20 21 21 22 23 24 27 29 28
Wind_Direction
241 239 241 252 260 264 261 263 255 257 254 270 278 281 272 261 269 271 270 267 265 265 265 256 255 254 256 256 257 263 267 269 271 274 275 278 284 286 288 292 295 297 301 305
245 247 262 252 246 248 250 253 254 263 259 263 274 271 272 267 267 273 275 271 264 260 258 254 253 252 255 258 261 265 269 270 273 272 272 275 279 282 286 290 291 295 299 301
248 250 259 238 240 242 245 245 253 262 273 273 280 274 266 268 272 273 273 269 268 260 252 248 245 250 254 258 263 266 267 267 268 267 267 269 274 279 286 287 289 294 297 301
262 259 245 236 241 241 248 254 262 264 264 266 270 277 275 272 273 271 269 265 269 265 263 249 243 246 251 261 264 259 261 265 266 264 261 264 270 281 284 286 290 294 298 301
258 273 263 253 256 246 251 257 263 267 264 267 259 256 278 281 270 267 267 270 269 269 252 250 244 243 249 253 254 253 257 263 264 256 258 263 272 282 285 287 289 293 299 302
266 260 255 258 259 258 254 257 260 262 257 252 251 232 272 265 275 285 274 267 258 244 248 237 238 241 247 243 253 255 257 260 250 253 261 266 276 282 282 283 287 293 298 300
280 272 270 254 253 253 246 242 236 250 213 244 257 231 254 265 265 272 280 277 258 249 236 237 270 272 258 254 252 253 257 252 253 257 265 271 280 282 280 281 286 293 296 298
276 284 275 273 255 257 246 233 215 211 221 258 251 231 249 272 282 278 271 242 239 244 254 271 281 276 270 254 250 251 256 258 262 264 272 275 282 279 279 283 289 293 296 298
267 271 284 275 275 256 248 232 247 249 266 275 253 259 268 266 262 261 270 256 242 245 251 270 264 273 241 249 251 259 263 261 262 267 273 278 280 279 281 284 290 292 296 299
276 286 284 280 268 260 245 251 236 230 249 251 260 264 254 272 273 276 266 261 254 258 260 249 263 260 245 237 251 263 263 262 264 269 274 275 276 280 281 287 290 293 298 302
291 278 278 280 266 264 254 239 238 245 236 242 258 256 268 272 278 279 277 268 259 261 256 245 254 244 239 240 257 275 272 266 267 270 269 273 276 278 281 286 289 294 298 300
282 284 277 276 281 277 267 257 250 234 242 241 246 257 257 264 271 276 275 275 262 256 257 250 254 246 242 245 259 285 278 266 268 267 268 270 273 276 282 285 289 293 297 299
292 276 301 291 281 268 262 260 255 252 250 247 247 259 267 270 274 272 265 243 247 271 270 255 256 256 247 252 273 289 277 271 265 267 268 268 274 278 282 285 289 293 296 299
309 296 269 282 297 291 298 281 283 296 270 262 251 261 265 265 266 270 269 265 269 269 269 264 255 251 255 265 285 278 281 267 264 268 266 271 275 279 283 287 290 293 296 300
290 289 289 289 291 289 288 292 293 293 283 292 276 276 273 275 279 279 278 276 271 268 263 259 243 251 258 276 274 272 281 267 266 267 266 272 274 281 285 287 289 293 296 298
293 286 285 278 291 291 297 292 293 284 291 291 282 281 281 275 272 272 277 277 272 263 256 253 252 262 265 267 262 272 278 270 264 262 267 271 277 280 282 285 288 292 293 296
286 283 278 276 284 292 282 290 293 292 282 280 287 286 280 275 276 273 278 274 273 270 264 260 261 261 260 257 266 273 267 257 258 262 267 271 274 278 281 283 288 291 291 295
286 284 274 266 281 263 278 265 276 287 288 269 267 285 291 278 269 267 255 265 268 271 269 264 263 250 247 264 265 263 256 254 256 261 263 268 274 276 279 286 287 287 293 298
302 311 278 245 258 278 282 293 291 309 299 291 293 304 287 276 268 256 258 251 253 260 267 270 262 256 255 252 258 254 245 247 252 257 264 268 271 275 282 282 285 290 294 298
301 290 276 276 276 274 281 284 291 306 288 300 315 321 302 306 310 271 244 242 243 246 256 264 261 256 242 243 260 246 244 247 252 260 264 266 273 278 278 281 287 288 292 299
305 298 286 297 289 283 281 281 314 342 313 327 330 324 318 317 304 307 300 241 233 242 247 262 254 242 244 254 245 239 241 247 255 259 264 267 271 271 276 280 284 287 294 301
288 298 294 286 274 279 295 303 315 317 314 312 314 317 313 320 297 300 316 274 228 239 243 241 239 245 241 239 227 229 236 247 255 259 261 264 267 270 274 279 282 290 298 305
273 276 279 267 270 290 302 302 309 317 311 311 301 315 320 309 316 291 318 359 205 212 235 230 233 232 211 207 209 220 236 249 255 256 261 264 263 269 275 279 285 293 302 304
286 294 279 283 294 297 300 306 309 311 307 303 296 305 315 311 310 300 308 342 138 220 221 204 191 186 192 200 211 227 246 261 261 260 260 261 265 269 273 280 291 299 303 302
284 294 292 292 302 313 299 295 302 301 296 291 292 290 294 300 303 294 304 288 201 212 190 180 186 188 201 221 235 244 249 271 257 257 258 258 262 268 277 286 297 301 301 302
296 301 295 297 316 313 300 308 295 295 298 293 290 284 282 295 289 295 291 280 241 188 192 212 220 217 234 244 250 245 255 279 258 253 256 260 266 273 281 293 300 299 300 299